DW4719 Vilanova I la Geltru ES current weather conditions

sailwx.info

Wind from 086 at 4 knots

Air temperature 22.8° C
Dewpoint 16.3° C

Last reported at 2014-Aug-20 21:55 UTC.
Time now 2014-Aug-20 22:30 UTC

Location: N 41°13' E 001°44'.
View on Google Maps.

See reports from other nearby stations

  
Tides and Currents Weather Stations Pressure Air Temp Water Temp Dewpoint Dewpoint Depression Visibility Wind Speed Wind Dir Waves Ship Positions
date/time (UTC)wind fromknots sea level pressurealtimeterstation pressurevisibilityair tempwater tempwave heightnotes
2014-Aug-20 21:55 086 4 22.8
2014-Aug-20 21:50 112 5 22.8
2014-Aug-20 21:44 085 5 22.8
2014-Aug-20 21:40 079 4 22.8
2014-Aug-20 21:35 066 3 22.8
2014-Aug-20 21:30 085 3 22.8
2014-Aug-20 21:25 102 3 23.3
2014-Aug-20 21:20 075 4 23.3
2014-Aug-20 21:14 086 4 23.3
2014-Aug-20 21:10 073 4 23.3
2014-Aug-20 21:05 079 4 23.3
2014-Aug-20 21:00 071 4 23.3
2014-Aug-20 20:55 075 5 23.3
2014-Aug-20 20:50 066 5 23.3
2014-Aug-20 20:44 076 3 23.3
2014-Aug-20 20:41 075 3 23.3
2014-Aug-20 20:35 064 5 23.3
2014-Aug-20 20:30 076 5 23.3
2014-Aug-20 20:25 055 5 23.3
2014-Aug-20 20:20 085 4 23.3
2014-Aug-20 20:16 078 3 23.3
2014-Aug-20 20:10 086 3 23.3
2014-Aug-20 20:05 093 3 23.3
2014-Aug-20 20:00 110 3 23.3
2014-Aug-20 19:55 086 0 23.3
2014-Aug-20 19:50 114 1 23.3
2014-Aug-20 19:46 110 2 23.3
2014-Aug-20 19:40 090 2 23.3
2014-Aug-20 19:35 080 3 23.3
2014-Aug-20 19:30 096 2 23.3
2014-Aug-20 19:25 090 3 23.3
2014-Aug-20 19:19 071 3 23.3
2014-Aug-20 19:16 085 3 23.3
2014-Aug-20 19:10 086 4 23.3
2014-Aug-20 19:05 065 3 23.3
2014-Aug-20 19:00 097 3 23.3
2014-Aug-20 18:55 064 4 23.3
2014-Aug-20 18:49 061 3 23.3
2014-Aug-20 18:45 104 3 23.3
2014-Aug-20 18:40 123 3 23.3
2014-Aug-20 18:35 120 3 23.3
2014-Aug-20 18:30 109 3 23.3
2014-Aug-20 18:25 078 3 23.3
2014-Aug-20 18:19 096 3 23.3
2014-Aug-20 18:15 088 3 23.9
2014-Aug-20 18:10 099 3 23.9
2014-Aug-20 18:05 088 5 23.9
2014-Aug-20 18:00 104 5 23.9
2014-Aug-20 17:55 092 5 23.9
2014-Aug-20 17:49 083 4 23.9
2014-Aug-20 17:46 076 4 23.9
2014-Aug-20 17:40 104 4 23.9
2014-Aug-20 17:35 076 4 23.9
2014-Aug-20 17:30 096 4 23.9
2014-Aug-20 17:25 116 4 23.9
2014-Aug-20 17:19 083 4 23.9
2014-Aug-20 17:16 088 4 24.4
2014-Aug-20 17:10 096 4 24.4
2014-Aug-20 17:05 093 5 24.4
2014-Aug-20 17:00 099 4 24.4
2014-Aug-20 16:55 102 4 24.4
2014-Aug-20 16:51 088 5 24.4
2014-Aug-20 16:45 112 4 24.4
2014-Aug-20 16:40 064 4 25.0
2014-Aug-20 16:35 123 3 24.4
2014-Aug-20 16:30 085 4 25.0
2014-Aug-20 16:25 114 5 25.0
2014-Aug-20 16:21 065 6 25.0
2014-Aug-20 16:15 090 5 25.0
2014-Aug-20 16:10 068 4 25.0
2014-Aug-20 16:05 088 2 25.0
2014-Aug-20 16:00 130 3 25.0
2014-Aug-20 15:54 093 6 24.4
2014-Aug-20 15:51 090 4 24.4
2014-Aug-20 15:45 099 4 24.4
2014-Aug-20 15:40 106 6 24.4
2014-Aug-20 15:35 099 6 24.4
2014-Aug-20 15:30 083 6 24.4
2014-Aug-20 15:24 080 6 24.4
2014-Aug-20 15:20 040 6 24.4
2014-Aug-20 15:15 080 5 25.0
2014-Aug-20 15:10 113 5 24.4
2014-Aug-20 15:05 082 5 24.4
2014-Aug-20 15:00 117 5 24.4
2014-Aug-20 14:54 096 5 24.4
2014-Aug-20 14:50 113 6 24.4
2014-Aug-20 14:45 110 5 24.4
2014-Aug-20 14:40 121 5 24.4
2014-Aug-20 14:35 095 5 24.4
2014-Aug-20 14:30 066 6 24.4
2014-Aug-20 14:24 093 6 24.4
2014-Aug-20 14:21 092 6 24.4
2014-Aug-20 14:15 104 6 24.4
2014-Aug-20 14:10 109 5 24.4
2014-Aug-20 14:05 089 5 24.4
2014-Aug-20 14:00 147 5 24.4
2014-Aug-20 13:54 136 5 23.9
2014-Aug-20 13:51 095 6 23.9
2014-Aug-20 13:45 066 6 23.9
2014-Aug-20 13:40 089 6 23.9
2014-Aug-20 13:35 076 6 24.4
2014-Aug-20 13:30 095 5 24.4
2014-Aug-20 13:26 090 5 25.0
2014-Aug-20 13:20 145 5 25.0
2014-Aug-20 13:15 112 6 25.0
2014-Aug-20 13:10 072 6 25.0
2014-Aug-20 13:05 092 6 25.0
2014-Aug-20 13:00 120 6 25.0
2014-Aug-20 12:56 093 5 25.0
2014-Aug-20 12:50 088 5 24.4
2014-Aug-20 12:45 082 5 24.4
2014-Aug-20 12:40 088 6 24.4
2014-Aug-20 12:35 095 6 24.4
2014-Aug-20 12:30 113 6 24.4
2014-Aug-20 12:25 110 5 24.4
2014-Aug-20 12:20 089 5 24.4
2014-Aug-20 12:15 097 6 24.4
2014-Aug-20 12:10 114 6 24.4
2014-Aug-20 12:05 093 5 24.4
2014-Aug-20 11:59 136 6 24.4
2014-Aug-20 11:55 092 6 24.4
2014-Aug-20 11:50 085 6 23.9
2014-Aug-20 11:45 120 4 24.4
2014-Aug-20 11:40 109 4 24.4
2014-Aug-20 11:35 093 5 24.4
2014-Aug-20 11:29 085 5 25.0
2014-Aug-20 11:25 096 5 25.0
2014-Aug-20 11:20 099 5 25.0
2014-Aug-20 11:15 103 5 25.0
2014-Aug-20 11:10 086 5 25.0
2014-Aug-20 11:05 147 6 25.0
2014-Aug-20 10:59 085 6 25.0
2014-Aug-20 10:56 079 6 24.4
2014-Aug-20 10:50 112 5 24.4
2014-Aug-20 10:45 088 4 25.0
2014-Aug-20 10:40 110 5 24.4
2014-Aug-20 10:35 126 6 24.4
2014-Aug-20 10:29 109 6 24.4
2014-Aug-20 10:25 075 6 24.4
2014-Aug-20 10:20 083 5 25.0
2014-Aug-20 10:15 082 3 25.0
2014-Aug-20 10:10 045 3 25.0
2014-Aug-20 10:05 079 4 24.4
2014-Aug-20 10:01 088 5 24.4
2014-Aug-20 09:55 126 4 24.4
2014-Aug-20 09:50 131 3 24.4
2014-Aug-20 09:45 137 3 24.4
2014-Aug-20 09:40 090 4 24.4
2014-Aug-20 09:35 117 5 23.9
2014-Aug-20 09:31 155 4 24.4
2014-Aug-20 09:25 134 2 24.4
2014-Aug-20 09:20 121 2 23.9
2014-Aug-20 09:15 114 4 23.9
2014-Aug-20 09:10 137 4 23.9
2014-Aug-20 09:04 158 3 23.9
2014-Aug-20 09:00 120 3 23.9
2014-Aug-20 08:55 130 3 23.9
2014-Aug-20 08:50 119 2 24.4
2014-Aug-20 08:45 120 2 24.4
2014-Aug-20 08:40 112 2 24.4
2014-Aug-20 08:34 104 2 24.4
2014-Aug-20 08:30 079 2 24.4
2014-Aug-20 08:25 113 2 23.9
2014-Aug-20 08:20 144 3 23.9
2014-Aug-20 08:15 080 3 23.9
2014-Aug-20 08:10 086 4 23.9
2014-Aug-20 08:04 134 2 23.9
2014-Aug-20 08:00 120 2 23.9
2014-Aug-20 07:55 110 3 23.9
2014-Aug-20 07:50 112 2 23.9
2014-Aug-20 07:45 109 1 23.9
2014-Aug-20 07:40 124 2 23.9
2014-Aug-20 07:34 124 2 23.9
2014-Aug-20 07:31 099 1 23.9
2014-Aug-20 07:25 121 1 23.9
2014-Aug-20 07:20 138 0 23.9
2014-Aug-20 07:15 133 0 23.9
2014-Aug-20 07:10 089 1 23.9
2014-Aug-20 07:04 121 23.9
2014-Aug-20 07:00 092 23.9
2014-Aug-20 06:55 131 23.9
2014-Aug-20 06:50 100 23.9
2014-Aug-20 06:45 089 23.9
2014-Aug-20 06:40 076 23.3
2014-Aug-20 06:36 073 23.3
2014-Aug-20 06:30 073 23.3
2014-Aug-20 06:25 075 23.3
2014-Aug-20 06:20 075 22.8
2014-Aug-20 06:15 075 22.8
2014-Aug-20 06:10 071 22.8
2014-Aug-20 06:06 071 22.8
2014-Aug-20 06:00 071 22.8
2014-Aug-20 05:55 072 22.8
2014-Aug-20 05:50 073 22.8
2014-Aug-20 05:45 073 22.8
2014-Aug-20 05:39 073 22.8
2014-Aug-20 05:35 073 22.8
2014-Aug-20 05:30 073 22.8
2014-Aug-20 05:25 073 22.8
2014-Aug-20 05:20 073 22.8
2014-Aug-20 05:15 073 22.8
2014-Aug-20 05:09 073 22.8
2014-Aug-20 05:05 073 22.2
2014-Aug-20 05:00 073 22.2
2014-Aug-20 04:55 073 22.2
2014-Aug-20 04:50 073 22.2
2014-Aug-20 04:45 073 22.2
2014-Aug-20 04:39 073 22.2
2014-Aug-20 04:35 073 22.2
2014-Aug-20 04:30 075 22.2
2014-Aug-20 04:25 075 22.2
2014-Aug-20 04:20 075 22.2
2014-Aug-20 04:15 075 22.2
2014-Aug-20 04:09 075 22.2
2014-Aug-20 04:06 075 22.2
2014-Aug-20 04:00 075 22.2
2014-Aug-20 03:55 075 22.2
2014-Aug-20 03:50 075 22.2
2014-Aug-20 03:45 082 22.2
2014-Aug-20 03:39 082 22.2
2014-Aug-20 03:35 082 22.2
2014-Aug-20 03:30 082 22.2
2014-Aug-20 03:25 082 22.2
2014-Aug-20 03:20 082 22.2
2014-Aug-20 03:15 082 22.2
2014-Aug-20 03:11 082 22.2
2014-Aug-20 03:05 082 22.2
2014-Aug-20 03:00 082 22.2
2014-Aug-20 02:55 082 22.2
2014-Aug-20 02:50 082 22.2
2014-Aug-20 02:45 082 22.2
2014-Aug-20 02:41 082 22.2
2014-Aug-20 02:35 082 22.2
2014-Aug-20 02:30 082 22.8
2014-Aug-20 02:25 082 22.8
2014-Aug-20 02:20 082 22.8
2014-Aug-20 02:14 082 22.8
2014-Aug-20 02:10 082 22.8
2014-Aug-20 02:05 082 22.8
2014-Aug-20 02:00 082 22.8
2014-Aug-20 01:55 082 22.8
2014-Aug-20 01:50 092 22.8
2014-Aug-20 01:44 092 22.8
2014-Aug-20 01:40 092 22.8
2014-Aug-20 01:35 092 22.8
2014-Aug-20 01:30 092 22.8
2014-Aug-20 01:25 092 22.2
2014-Aug-20 01:20 092 22.2
2014-Aug-20 01:14 092 22.8
2014-Aug-20 01:10 092 22.8
2014-Aug-20 01:05 092 22.8
2014-Aug-20 01:00 092 22.8
2014-Aug-20 00:55 092 22.8
2014-Aug-20 00:50 092 22.8
2014-Aug-20 00:44 092 22.8
2014-Aug-20 00:41 092 22.8
2014-Aug-20 00:35 092 22.8
2014-Aug-20 00:30 092 22.8
2014-Aug-20 00:25 092 22.8
2014-Aug-20 00:20 092 22.8
2014-Aug-20 00:14 092 22.8
2014-Aug-20 00:10 092 22.8
2014-Aug-20 00:05 092 22.8
2014-Aug-20 00:00 092 22.8
2014-Aug-19 23:55 092 22.8
2014-Aug-19 23:50 092 23.3
2014-Aug-19 23:46 092 23.3
2014-Aug-19 23:40 092 23.3
2014-Aug-19 23:35 092 23.3
2014-Aug-19 23:30 092 23.3
2014-Aug-19 23:25 106 23.3
2014-Aug-19 23:19 096 23.3
2014-Aug-19 23:16 100 23.3
2014-Aug-19 23:10 092 23.3
2014-Aug-19 23:05 088 23.3
2014-Aug-19 23:00 089 23.3
2014-Aug-19 22:55 089 23.3
2014-Aug-19 22:49 089 23.3
2014-Aug-19 22:45 093 23.3
2014-Aug-19 22:40 097 23.9
2014-Aug-19 22:35 097 23.9
2014-Aug-19 22:30 093 23.9
2014-Aug-19 22:25 095 23.9
2014-Aug-19 22:19 090 23.9
2014-Aug-19 22:15 085 23.9
2014-Aug-19 22:10 080 23.9
2014-Aug-19 22:05 086 23.9
2014-Aug-19 22:00 085 23.9
2014-Aug-19 21:55 088 23.9
2014-Aug-19 21:49 110 23.9
2014-Aug-19 21:45 110 23.9
2014-Aug-19 21:40 110 23.9
2014-Aug-19 21:35 127 23.9
2014-Aug-19 21:30 128 23.9
2014-Aug-19 21:25 128 23.9
2014-Aug-19 21:19 126 23.9
2014-Aug-19 21:16 126 23.9
2014-Aug-19 21:10 126 23.9
2014-Aug-19 21:05 107 23.9
2014-Aug-19 21:00 107 23.9
2014-Aug-19 20:55 100 23.9
2014-Aug-19 20:51 100 23.9
2014-Aug-19 20:45 102 23.9
2014-Aug-19 20:40 097 23.9
2014-Aug-19 20:35 099 23.9
2014-Aug-19 20:30 089 23.9
2014-Aug-19 20:25 089 23.9
2014-Aug-19 20:21 102 23.9
2014-Aug-19 20:15 113 23.9
2014-Aug-19 20:10 113 23.9
2014-Aug-19 20:05 110 23.9
2014-Aug-19 20:00 093 23.9
2014-Aug-19 19:55 093 23.9
2014-Aug-19 19:51 093 23.9
2014-Aug-19 19:45 095 23.9
2014-Aug-19 19:40 093 23.9
2014-Aug-19 19:35 110 23.9
2014-Aug-19 19:30 110 23.9
2014-Aug-19 19:24 110 23.9
2014-Aug-19 19:20 117 23.9
2014-Aug-19 19:15 117 23.9
2014-Aug-19 19:10 109 23.9
2014-Aug-19 19:05 123 0 24.4
2014-Aug-19 19:00 124 0 24.4
2014-Aug-19 18:54 123 1 24.4
2014-Aug-19 18:50 124 1 24.4
2014-Aug-19 18:45 102 0 24.4
2014-Aug-19 18:40 131 0 24.4
2014-Aug-19 18:35 131 0 24.4
2014-Aug-19 18:30 128 0 24.4
2014-Aug-19 18:24 120 0 24.4
2014-Aug-19 18:21 116 0 24.4
2014-Aug-19 18:15 127 1 24.4
2014-Aug-19 18:10 117 2 24.4
2014-Aug-19 18:05 134 1 24.4
2014-Aug-19 18:00 131 24.4
2014-Aug-19 17:54 126 1 24.4
2014-Aug-19 17:51 130 3 24.4
2014-Aug-19 17:45 130 4 24.4
2014-Aug-19 17:40 133 2 24.4
2014-Aug-19 17:35 114 2 24.4
2014-Aug-19 17:30 093 1 24.4
2014-Aug-19 17:26 119 1 24.4
2014-Aug-19 17:20 138 2 24.4
2014-Aug-19 17:15 120 1 24.4
2014-Aug-19 17:10 143 1 24.4
2014-Aug-19 17:04 126 1 24.4
2014-Aug-19 17:00 128 2 24.4
2014-Aug-19 16:56 126 3 24.4
2014-Aug-19 16:50 116 3 24.4
2014-Aug-19 16:45 137 4 24.4
2014-Aug-19 16:40 147 4 24.4
2014-Aug-19 16:35 127 4 24.4
2014-Aug-19 16:29 141 5 24.4
2014-Aug-19 16:25 136 5 24.4
2014-Aug-19 16:20 121 5 24.4
2014-Aug-19 16:15 138 5 25.0
2014-Aug-19 16:10 082 5 25.0
2014-Aug-19 16:05 124 5 25.0
2014-Aug-19 15:59 141 4 25.0
2014-Aug-19 15:55 141 4 25.0
2014-Aug-19 15:50 130 5 25.0
2014-Aug-19 15:45 128 5 25.0
2014-Aug-19 15:40 120 6 25.0
2014-Aug-19 15:35 121 5 25.0
2014-Aug-19 15:29 128 5 25.0
2014-Aug-19 15:25 130 6 25.0
2014-Aug-19 15:20 164 6 25.0
2014-Aug-19 15:15 137 6 25.0
2014-Aug-19 15:10 114 6 25.0
2014-Aug-19 15:05 121 6 25.0
2014-Aug-19 14:59 110 6 25.0
2014-Aug-19 14:56 181 6 25.0
2014-Aug-19 14:50 117 6 25.0
2014-Aug-19 14:45 114 6 25.0
2014-Aug-19 14:40 093 6 25.0
2014-Aug-19 14:35 110 6 25.6
2014-Aug-19 14:29 168 6 25.6
2014-Aug-19 14:25 141 7 25.0
2014-Aug-19 14:20 124 8 25.0
2014-Aug-19 14:15 124 8 25.0
2014-Aug-19 14:10 140 8 25.0
2014-Aug-19 14:05 134 8 25.0
2014-Aug-19 14:01 117 8 25.0
2014-Aug-19 13:55 124 8 25.0
2014-Aug-19 13:50 121 6 25.6
2014-Aug-19 13:45 119 6 25.6
2014-Aug-19 13:40 144 6 25.6
2014-Aug-19 13:35 148 6 25.6
2014-Aug-19 13:31 152 6 25.6
2014-Aug-19 13:25 131 6 25.6
2014-Aug-19 13:20 119 6 26.1
2014-Aug-19 13:15 136 5 26.1
2014-Aug-19 13:10 172 6 26.1
2014-Aug-19 13:04 113 7 25.6
2014-Aug-19 13:00 138 7 25.6
2014-Aug-19 12:55 096 7 25.6
2014-Aug-19 12:50 158 7 25.6
2014-Aug-19 12:45 150 6 25.6
2014-Aug-19 12:40 131 6 26.1
2014-Aug-19 12:34 133 6 25.6
2014-Aug-19 12:30 123 6 25.6
2014-Aug-19 12:25 104 7 25.6
2014-Aug-19 12:20 150 7 25.6
2014-Aug-19 12:15 130 8 25.6
2014-Aug-19 12:10 127 7 25.6
2014-Aug-19 12:04 127 6 25.6
2014-Aug-19 12:00 090 6 26.1
2014-Aug-19 11:55 113 6 26.1
2014-Aug-19 11:50 136 6 26.1
2014-Aug-19 11:45 131 6 25.6
2014-Aug-19 11:40 128 7 26.1
2014-Aug-19 11:34 143 8 25.6
2014-Aug-19 11:31 102 8 25.6
2014-Aug-19 11:25 121 7 25.6
2014-Aug-19 11:20 144 6 26.1
2014-Aug-19 11:15 082 6 26.1
2014-Aug-19 11:10 088 6 26.1
2014-Aug-19 11:06 121 6 26.1
2014-Aug-19 11:00 102 6 26.1
2014-Aug-19 10:55 138 6 26.1
2014-Aug-19 10:50 092 6 26.1
2014-Aug-19 10:45 151 5 26.1
2014-Aug-19 10:40 126 6 26.1
2014-Aug-19 10:36 097 6 25.6
2014-Aug-19 10:30 073 6 26.1
2014-Aug-19 10:25 089 7 25.6
2014-Aug-19 10:20 071 6 25.6
2014-Aug-19 10:15 121 6 25.6
2014-Aug-19 10:10 092 6 25.6
2014-Aug-19 10:06 136 6 25.6
2014-Aug-19 10:00 124 6 25.6
2014-Aug-19 09:55 130 7 25.6
2014-Aug-19 09:50 116 6 25.6
2014-Aug-19 09:45 121 6 25.6
2014-Aug-19 09:39 134 6 25.6
2014-Aug-19 09:35 097 6 25.6
2014-Aug-19 09:30 075 5 25.6
2014-Aug-19 09:25 104 5 25.6
2014-Aug-19 09:20 092 5 25.6
2014-Aug-19 09:15 103 4 25.6
2014-Aug-19 09:09 112 5 25.6
2014-Aug-19 09:05 126 5 25.6
2014-Aug-19 09:00 121 5 25.6
2014-Aug-19 08:55 095 5 25.6
2014-Aug-19 08:50 131 5 25.0
2014-Aug-19 08:45 116 5 25.6
2014-Aug-19 08:39 133 4 25.6
2014-Aug-19 08:35 110 4 25.6
2014-Aug-19 08:30 127 3 25.6
2014-Aug-19 08:25 124 1 25.0
2014-Aug-19 08:20 093 0 25.6
2014-Aug-19 08:15 113 25.6
2014-Aug-19 08:09 068 25.6
2014-Aug-19 08:06 068 25.6
2014-Aug-19 08:00 064 26.1
2014-Aug-19 07:55 065 25.6
2014-Aug-19 07:50 056 25.6
2014-Aug-19 07:45 064 25.0
2014-Aug-19 07:41 048 25.0
2014-Aug-19 07:35 075 25.0
2014-Aug-19 07:30 076 25.0
2014-Aug-19 07:25 075 24.4
2014-Aug-19 07:20 069 23.9
2014-Aug-19 07:15 068 23.9
2014-Aug-19 07:11 069 23.9
2014-Aug-19 07:05 061 23.3
2014-Aug-19 07:00 066 0 23.3
2014-Aug-19 06:55 055 0 22.8
2014-Aug-19 06:50 048 22.8
2014-Aug-19 06:38 049 0 22.2
2014-Aug-19 06:35 062 0 22.2
2014-Aug-19 06:30 066 0 22.2
2014-Aug-19 06:25 068 0 22.2
2014-Aug-19 06:20 052 1 22.2
2014-Aug-19 06:14 056 1 21.7
2014-Aug-19 06:10 059 0 21.7
2014-Aug-19 06:04 064 21.7
2014-Aug-19 06:00 066 0 21.7
2014-Aug-19 05:55 054 0 21.7
2014-Aug-19 05:50 051 1 21.1
2014-Aug-19 05:44 051 1 21.1
2014-Aug-19 05:40 062 0 21.1
2014-Aug-19 05:35 061 0 20.6
2014-Aug-19 05:30 052 20.6
2014-Aug-19 05:25 048 20.6
2014-Aug-19 05:20 031 20.6
2014-Aug-19 05:14 028 20.6
2014-Aug-19 05:11 027 20.6
2014-Aug-19 05:05 027 20.6
2014-Aug-19 05:00 024 20.6
2014-Aug-19 04:55 318 21.1
2014-Aug-19 04:50 302 21.1
2014-Aug-19 04:44 302 20.6
2014-Aug-19 04:40 302 20.6
2014-Aug-19 04:35 302 20.6
2014-Aug-19 04:30 302 20.6
2014-Aug-19 04:25 302 20.6
2014-Aug-19 04:20 302 20.6
2014-Aug-19 04:16 302 20.6
2014-Aug-19 04:10 302 20.6
2014-Aug-19 04:05 302 20.6
2014-Aug-19 04:00 302 20.6
2014-Aug-19 03:55 302 20.6
2014-Aug-19 03:50 302 20.6
2014-Aug-19 03:46 302 20.6
2014-Aug-19 03:40 302 20.6
2014-Aug-19 03:35 302 21.1
2014-Aug-19 03:30 302 21.1
2014-Aug-19 03:25 302 21.1
2014-Aug-19 03:19 302 21.1
2014-Aug-19 03:16 302 21.1
2014-Aug-19 03:10 302 21.1
2014-Aug-19 03:05 302 21.7
2014-Aug-19 03:00 302 21.7
2014-Aug-19 02:55 302 21.7
2014-Aug-19 02:49 302 21.7
2014-Aug-19 02:45 302 21.7
2014-Aug-19 02:40 302 21.7
2014-Aug-19 02:35 302 21.7
2014-Aug-19 02:30 302 21.7
2014-Aug-19 02:25 302 21.7
2014-Aug-19 02:19 302 21.7
2014-Aug-19 02:15 302 21.7
2014-Aug-19 02:10 302 21.7
2014-Aug-19 02:05 265 21.7
2014-Aug-19 02:00 265 21.7
2014-Aug-19 01:55 265 21.7
2014-Aug-19 01:49 264 21.7
2014-Aug-19 01:45 265 21.7
2014-Aug-19 01:40 265 21.7
2014-Aug-19 01:35 264 21.7
2014-Aug-19 01:30 265 21.7
2014-Aug-19 01:25 265 21.7
2014-Aug-19 01:19 265 21.7
2014-Aug-19 01:16 265 21.7
2014-Aug-19 01:10 265 21.7
2014-Aug-19 01:05 265 21.7
2014-Aug-19 01:00 265 21.1
2014-Aug-19 00:55 264 21.1
2014-Aug-19 00:51 265 21.1
2014-Aug-19 00:45 265 21.7
2014-Aug-19 00:40 265 21.7
2014-Aug-19 00:35 264 21.7
2014-Aug-19 00:30 264 21.7
2014-Aug-19 00:25 264 21.7
2014-Aug-19 00:21 264 22.2
2014-Aug-19 00:15 264 22.2
2014-Aug-19 00:10 264 22.2
2014-Aug-19 00:05 264 22.2
2014-Aug-19 00:00 264 22.2
2014-Aug-18 23:55 264 22.2
2014-Aug-18 23:51 264 22.2
2014-Aug-18 23:45 264 22.2
2014-Aug-18 23:40 264 22.2
2014-Aug-18 23:35 264 22.8
2014-Aug-18 23:30 264 22.8
2014-Aug-18 23:24 264 22.8
2014-Aug-18 23:20 264 22.8
2014-Aug-18 23:15 264 22.8
2014-Aug-18 23:10 264 22.8
2014-Aug-18 23:05 264 23.3
2014-Aug-18 23:00 264 23.3
2014-Aug-18 22:54 264 23.3
2014-Aug-18 22:50 264 23.3
2014-Aug-18 22:45 264 23.3
2014-Aug-18 22:40 264 23.3
2014-Aug-18 22:35 264 23.3
2014-Aug-18 22:30 264 23.3
2014-Aug-18 22:24 264 23.3
2014-Aug-18 22:20 264 23.9
2014-Aug-18 22:15 264 23.9
2014-Aug-18 22:10 264 23.9
2014-Aug-18 22:05 264 23.9
2014-Aug-18 22:00 264 23.9